RLI YBCG-YMUR

Flight info

Callsign RLI
Flight time 0h 6m
Altitude 3000
Route YMUR
Aircraft B222/L-SDFGRWY/S

Departure

Time 2026-05-06 11:59
Airport Gold Coast Airport (YBCG)

Arrival

Time 2026-05-06 12:05
Airport Murwillumbah Airport (YMUR)
Time Latitude Longitude Altitude Speed Heading
2026-05-06 11:33 -28.16042 153.50748 16 ft 0 kts 224°
2026-05-06 11:51 -28.16039 153.50746 25 ft 1 kts 168°
2026-05-06 11:52 -28.16055 153.50747 29 ft 5 kts 147°
2026-05-06 11:52 -28.16090 153.50765 30 ft 6 kts 156°
2026-05-06 11:52 -28.16136 153.50785 30 ft 8 kts 153°
2026-05-06 11:52 -28.16181 153.50805 27 ft 6 kts 143°
2026-05-06 11:53 -28.16189 153.50809 23 ft 0 kts 132°
2026-05-06 11:53 -28.16191 153.50811 23 ft 2 kts 134°
2026-05-06 11:54 -28.16194 153.50813 21 ft 0 kts 197°
2026-05-06 11:57 -28.16203 153.50795 38 ft 6 kts 228°
2026-05-06 11:58 -28.16231 153.50695 128 ft 24 kts 258°
2026-05-06 11:58 -28.16163 153.50398 354 ft 58 kts 297°
2026-05-06 11:58 -28.15850 153.49924 463 ft 91 kts 306°
2026-05-06 11:58 -28.15450 153.49279 527 ft 108 kts 299°
2026-05-06 11:59 -28.15170 153.48461 568 ft 115 kts 273°
2026-05-06 11:59 -28.15220 153.47578 636 ft 114 kts 260°
2026-05-06 11:59 -28.15368 153.46712 723 ft 112 kts 257°
2026-05-06 11:59 -28.15628 153.45886 815 ft 111 kts 248°
2026-05-06 12:00 -28.15902 153.45072 919 ft 110 kts 250°
2026-05-06 12:00 -28.16176 153.44263 1039 ft 110 kts 239°
2026-05-06 12:00 -28.16600 153.43763 1148 ft 110 kts 211°
2026-05-06 12:00 -28.17267 153.43359 1285 ft 108 kts 208°
2026-05-06 12:01 -28.17932 153.42963 1403 ft 108 kts 206°
2026-05-06 12:01 -28.18636 153.42613 1423 ft 114 kts 202°
2026-05-06 12:01 -28.19413 153.42307 1383 ft 119 kts 190°
2026-05-06 12:01 -28.20235 153.42216 1386 ft 122 kts 182°
2026-05-06 12:02 -28.21089 153.42215 1385 ft 123 kts 180°
2026-05-06 12:02 -28.21947 153.42229 1387 ft 124 kts 180°
2026-05-06 12:02 -28.22815 153.42224 1385 ft 124 kts 181°
2026-05-06 12:02 -28.23679 153.42192 1387 ft 125 kts 183°
2026-05-06 12:03 -28.24547 153.42138 1388 ft 125 kts 184°
2026-05-06 12:03 -28.25413 153.42071 1386 ft 125 kts 185°
2026-05-06 12:03 -28.26277 153.41997 1386 ft 124 kts 185°
2026-05-06 12:03 -28.27146 153.41920 1389 ft 126 kts 185°
2026-05-06 12:04 -28.28002 153.41842 1389 ft 125 kts 185°
2026-05-06 12:04 -28.28870 153.41763 1388 ft 125 kts 185°
2026-05-06 12:04 -28.29736 153.41680 1349 ft 125 kts 185°
2026-05-06 12:04 -28.30580 153.41627 1062 ft 115 kts 182°
2026-05-06 12:05 -28.31308 153.41639 926 ft 95 kts 178°
2026-05-06 12:05 -28.31949 153.41673 693 ft 90 kts 189°
2026-05-06 12:05 -28.32543 153.41576 291 ft 84 kts 194°
2026-05-06 12:05 -28.32954 153.41378 121 ft 47 kts 170°
2026-05-06 12:06 -28.33182 153.41276 59 ft 24 kts 165°
2026-05-06 12:06 -28.33249 153.41240 29 ft 6 kts 41°
2026-05-06 12:06 -28.33174 153.41326 62 ft 24 kts 23°
2026-05-06 12:06 -28.33103 153.41373 25 ft 2 kts 25°
2026-05-06 12:07 -28.33095 153.41378 21 ft 0 kts 27°
2026-05-06 12:07 -28.33096 153.41383 25 ft 1 kts
2026-05-06 12:08 -28.33098 153.41374 29 ft 9 kts 230°
2026-05-06 12:08 -28.33116 153.41276 23 ft 13 kts 268°
2026-05-06 12:08 -28.33117 153.41268 21 ft 0 kts 53°
2026-05-06 12:08 -28.33117 153.41267 20 ft 0 kts 66°
2026-05-06 12:09 -28.33116 153.41267 22 ft 0 kts 23°
2026-05-06 12:09 -28.33116 153.41265 20 ft 1 kts 293°
2026-05-06 12:10 -28.33119 153.41265 19 ft 0 kts 128°
2026-05-06 12:10 -28.33118 153.41264 21 ft 0 kts 184°